Hourly Weather Lubin

Today, 13 June, Sunday

Time Temperature Precipitation Wind Pressure Humidity
00:00 +12°C° 0.1 mm 5 mps 750 mmHg 93%
01:00 +10°C° 0.1 mm 5 mps 751 mmHg 94%
02:00 +10°C° 0 mm 5 mps 751 mmHg 93%
03:00 +9°C° 0 mm 5 mps 751 mmHg 93%
04:00 +9°C° 0 mm 5 mps 752 mmHg 93%
05:00 +9°C° 0 mm 6 mps 752 mmHg 89%
06:00 +10°C° 0 mm 6 mps 753 mmHg 85%
07:00 +11°C° 0 mm 7 mps 753 mmHg 81%
08:00 +12°C° 0 mm 7 mps 753 mmHg 74%
09:00 +12°C° 0 mm 7 mps 754 mmHg 67%
10:00 +14°C° 0 mm 7 mps 754 mmHg 60%
11:00 +14°C° 0 mm 7 mps 754 mmHg 60%
12:00 +14°C° 0 mm 6 mps 754 mmHg 61%
13:00 +14°C° 0 mm 6 mps 755 mmHg 62%
14:00 +14°C° 0 mm 6 mps 755 mmHg 63%
15:00 +14°C° 0 mm 5 mps 755 mmHg 64%
16:00 +14°C° 0 mm 5 mps 755 mmHg 64%
17:00 +14°C° 0 mm 5 mps 755 mmHg 65%
18:00 +14°C° 0 mm 4 mps 755 mmHg 66%
19:00 +14°C° 0 mm 3 mps 755 mmHg 66%
20:00 +14°C° 0 mm 3 mps 756 mmHg 68%
21:00 +13°C° 0 mm 3 mps 756 mmHg 70%
22:00 +13°C° 0 mm 2 mps 756 mmHg 72%
23:00 +12°C° 0 mm 2 mps 756 mmHg 79%

Tomorrow, 14 June, Monday

Time Temperature Precipitation Wind Pressure Humidity
00:00 +10°C° 0 mm 2 mps 756 mmHg 85%
01:00 +9°C° 0 mm 2 mps 756 mmHg 91%
02:00 +9°C° 0 mm 2 mps 756 mmHg 92%
03:00 +9°C° 0 mm 2 mps 756 mmHg 93%
04:00 +8°C° 0 mm 2 mps 756 mmHg 94%
05:00 +10°C° 0 mm 2 mps 756 mmHg 88%
06:00 +13°C° 0 mm 2 mps 756 mmHg 81%
07:00 +15°C° 0 mm 2 mps 756 mmHg 75%
08:00 +16°C° 0 mm 2 mps 756 mmHg 69%
09:00 +18°C° 0 mm 2 mps 756 mmHg 62%
10:00 +19°C° 0 mm 2 mps 756 mmHg 56%
11:00 +20°C° 0 mm 2 mps 755 mmHg 53%
12:00 +22°C° 0 mm 1 mps 755 mmHg 50%
13:00 +23°C° 0 mm 1 mps 754 mmHg 47%
14:00 +23°C° 0 mm 1 mps 754 mmHg 47%
15:00 +24°C° 0 mm 1 mps 754 mmHg 46%
16:00 +24°C° 0 mm 1 mps 754 mmHg 45%
17:00 +23°C° 0 mm 1 mps 753 mmHg 52%
18:00 +22°C° 0 mm 1 mps 753 mmHg 59%
19:00 +20°C° 0 mm 2 mps 753 mmHg 66%
20:00 +18°C° 0 mm 2 mps 753 mmHg 68%
21:00 +17°C° 0 mm 2 mps 753 mmHg 70%
22:00 +15°C° 0 mm 2 mps 753 mmHg 73%
23:00 +15°C° 0 mm 2 mps 753 mmHg 74%

Day after tomorrow, 15 June, Tuesday

Time Temperature Precipitation Wind Pressure Humidity
00:00 +15°C° 0 mm 2 mps 753 mmHg 76%
01:00 +15°C° 0 mm 2 mps 753 mmHg 77%
02:00 +14°C° 0 mm 2 mps 753 mmHg 79%
03:00 +14°C° 0 mm 2 mps 753 mmHg 81%
04:00 +14°C° 0 mm 2 mps 753 mmHg 83%
05:00 +16°C° 0 mm 2 mps 753 mmHg 79%
06:00 +17°C° 0 mm 2 mps 753 mmHg 75%
07:00 +19°C° 0 mm 2 mps 753 mmHg 71%
08:00 +20°C° 0 mm 2 mps 753 mmHg 67%
09:00 +23°C° 0 mm 2 mps 753 mmHg 62%
10:00 +24°C° 0 mm 2 mps 753 mmHg 58%
11:00 +25°C° 0 mm 2 mps 752 mmHg 55%
12:00 +26°C° 0 mm 2 mps 752 mmHg 53%
13:00 +26°C° 0 mm 2 mps 752 mmHg 51%
14:00 +25°C° 0.3 mm 2 mps 752 mmHg 59%
15:00 +24°C° 0.3 mm 3 mps 752 mmHg 68%
16:00 +22°C° 0.3 mm 3 mps 752 mmHg 76%
17:00 +21°C° 1 mm 3 mps 752 mmHg 80%
18:00 +20°C° 1 mm 3 mps 752 mmHg 84%
19:00 +20°C° 1 mm 2 mps 752 mmHg 88%
20:00 +19°C° 0.3 mm 2 mps 752 mmHg 90%
21:00 +18°C° 0.3 mm 2 mps 752 mmHg 92%
22:00 +18°C° 0.3 mm 1 mps 753 mmHg 94%
23:00 +18°C° 0 mm 1 mps 753 mmHg 94%

16 June, Wednesday

Time Temperature Precipitation Wind Pressure Humidity
00:00 +16°C° 0 mm 1 mps 753 mmHg 94%
01:00 +15°C° 0 mm 1 mps 753 mmHg 95%
02:00 +15°C° 0 mm 1 mps 753 mmHg 94%
03:00 +14°C° 0 mm 2 mps 753 mmHg 93%
04:00 +13°C° 0 mm 2 mps 753 mmHg 93%
05:00 +14°C° 0 mm 2 mps 753 mmHg 87%
06:00 +15°C° 0 mm 2 mps 753 mmHg 82%
07:00 +16°C° 0 mm 2 mps 753 mmHg 77%
08:00 +18°C° 0 mm 2 mps 753 mmHg 72%
09:00 +20°C° 0 mm 2 mps 753 mmHg 68%
10:00 +21°C° 0 mm 2 mps 753 mmHg 63%
11:00 +23°C° 0 mm 2 mps 753 mmHg 62%
12:00 +24°C° 0 mm 2 mps 753 mmHg 60%
13:00 +25°C° 0 mm 2 mps 753 mmHg 58%
14:00 +25°C° 0 mm 3 mps 753 mmHg 58%
15:00 +25°C° 0 mm 3 mps 752 mmHg 59%
16:00 +25°C° 0 mm 3 mps 752 mmHg 59%
17:00 +24°C° 0 mm 3 mps 752 mmHg 64%
18:00 +22°C° 0 mm 3 mps 752 mmHg 70%
19:00 +21°C° 0 mm 3 mps 752 mmHg 75%
20:00 +20°C° 0 mm 3 mps 752 mmHg 79%
21:00 +18°C° 0 mm 3 mps 752 mmHg 83%
22:00 +17°C° 0 mm 3 mps 753 mmHg 86%
23:00 +17°C° 0 mm 3 mps 752 mmHg 87%

17 June, Thursday

Time Temperature Precipitation Wind Pressure Humidity
00:00 +16°C° 0 mm 3 mps 752 mmHg 88%
01:00 +16°C° 0 mm 3 mps 752 mmHg 88%
02:00 +16°C° 0 mm 3 mps 752 mmHg 90%
03:00 +15°C° 0 mm 2 mps 752 mmHg 91%
04:00 +15°C° 0 mm 2 mps 752 mmHg 93%
05:00 +17°C° 0 mm 3 mps 752 mmHg 87%
06:00 +19°C° 0 mm 3 mps 752 mmHg 82%
07:00 +21°C° 0 mm 4 mps 753 mmHg 76%
08:00 +22°C° 0 mm 4 mps 753 mmHg 70%
09:00 +25°C° 0 mm 5 mps 753 mmHg 64%
10:00 +26°C° 0 mm 5 mps 753 mmHg 58%
11:00 +27°C° 0 mm 5 mps 752 mmHg 55%
12:00 +28°C° 0 mm 5 mps 752 mmHg 53%
13:00 +29°C° 0 mm 4 mps 752 mmHg 50%
14:00 +29°C° 0 mm 4 mps 752 mmHg 50%
15:00 +29°C° 0 mm 4 mps 752 mmHg 50%
16:00 +29°C° 0 mm 4 mps 752 mmHg 49%
17:00 +28°C° 0 mm 4 mps 752 mmHg 56%
18:00 +27°C° 0 mm 3 mps 752 mmHg 63%
19:00 +25°C° 0 mm 3 mps 752 mmHg 69%
20:00 +24°C° 0 mm 3 mps 752 mmHg 73%
21:00 +22°C° 0 mm 3 mps 752 mmHg 77%
22:00 +21°C° 0 mm 4 mps 752 mmHg 80%
23:00 +20°C° 0 mm 3 mps 752 mmHg 84%

18 June, Friday

Time Temperature Precipitation Wind Pressure Humidity
00:00 +19°C° 0 mm 3 mps 752 mmHg 87%
01:00 +18°C° 0 mm 3 mps 752 mmHg 90%
02:00 +18°C° 0 mm 3 mps 752 mmHg 90%
03:00 +18°C° 0 mm 3 mps 751 mmHg 91%
04:00 +17°C° 0 mm 3 mps 751 mmHg 91%
05:00 +19°C° 0 mm 3 mps 751 mmHg 85%
06:00 +21°C° 0 mm 4 mps 751 mmHg 79%
07:00 +22°C° 0 mm 4 mps 751 mmHg 73%
08:00 +25°C° 0 mm 4 mps 751 mmHg 67%
09:00 +27°C° 0 mm 4 mps 751 mmHg 62%
10:00 +29°C° 0 mm 4 mps 751 mmHg 56%
11:00 +29°C° 0 mm 4 mps 751 mmHg 54%
12:00 +30°C° 0 mm 4 mps 751 mmHg 51%
13:00 +32°C° 0 mm 4 mps 751 mmHg 48%
14:00 +32°C° 0 mm 4 mps 751 mmHg 49%
15:00 +32°C° 0 mm 4 mps 751 mmHg 49%
16:00 +32°C° 0 mm 4 mps 751 mmHg 49%
17:00 +30°C° 0 mm 4 mps 751 mmHg 55%
18:00 +28°C° 0 mm 4 mps 750 mmHg 61%
19:00 +27°C° 0 mm 4 mps 750 mmHg 66%
20:00 +25°C° 0 mm 3 mps 751 mmHg 69%
21:00 +24°C° 0 mm 3 mps 751 mmHg 72%
22:00 +21°C° 0 mm 3 mps 751 mmHg 74%
23:00 +21°C° 0 mm 3 mps 751 mmHg 77%
Show more